Find Starlink 34259

NORAD ID: 65368 Int'l Des: 2025-190 Owner: SPXS Country: US Constellation: starlink operational
LEOCIRCULAR

当前视图

正在加载3D地球...

About Starlink 34259

Starlink 34259 (NORAD 65368) is a starlink constellation satellite (v2 mini) launched Aug 28, 2025 by SPXS of US. It operates in LEO, CIRCULAR orbit with a mass of 575.00 kg.

关于 Starlink 34259

正在加载描述...

即将过境

Passes for default location (London). Set your location on the main map for personalized predictions.

高度历史

Loading altitude history...

两行轨道根数

1 65368U 25190T 26195.57333937 .00010182 00000-0 31195-3 0 9992
2 65368 53.1584 297.2618 0000838 83.4859 276.6239 15.34411138 49208
Epoch: Jul 14, 2026 • Age: 15 hours

当前状态

高度 463.3 km
远地点 / 近地点 N/A
速度 7.64 km/s
星下点 1.75°N, 111.01°E
发射日期 Aug 28, 2025
运行时间 0.8 years
类型 internet

技术详情

分类 Payload
质量 575.00 kg
干质量 530.00 kg
总质量 575.00 kg
长度 0.30 m
直径 4.10 m
跨度 29.00 m
形状 Box + pan
制造商 SPXS
平台类型 Starlink V2MO
阶段状态 In Orbit
所有者/国家 SPXS/US

Most Searched